Location: Unspecified
(0.0000°N, 0.0000°E)
Time: 19:34:20
(UTC+00:00)

Vela 3A - Visible Passes

Search period start: 07 December 2021 00:00
Search period end: 17 December 2021 00:00
Orbit: 53303 x 170461 km, 20.8° (Epoch: 27 November)

Date Brightness Start Highest point End Pass type
(mag) Time Alt. Az. Time Alt. Az. Time Alt. Az.
07 Dec ? 13:00:47 10° E 20:26:08 84° N 02:52:50 10° WNW visible
08 Dec ? 18:38:21 10° ENE 00:19:06 69° N 05:59:19 10° WNW daylight
09 Dec ? 21:00:38 10° ENE 02:40:15 70° N 08:19:44 10° WNW visible
10 Dec ? 23:53:02 10° ENE 06:07:27 83° N 12:52:30 10° W visible
12 Dec ? 15:41:18 10° E 21:48:18 75° N 03:47:09 10° WNW visible
13 Dec ? 19:06:17 10° ENE 00:44:34 68° N 06:22:31 10° WNW daylight
14 Dec ? 21:25:11 10° ENE 03:08:36 71° N 08:52:36 10° WNW visible
16 Dec ? 01:17:16 10° E 08:38:25 78° SSE 22:49:29 10° W visible
16 Dec ? 01:17:16 10° E 08:38:26 78° SSE 22:49:29 10° W visible
16 Dec ? 01:17:16 10° E 08:38:25 78° SSE 22:49:28 10° W visible
